When you browse on this site, cookies collect data to enhance your experience and personalize the content and advertising you see.
Visit our Privacy Policy to learn more. By continuing to use the site, you agree to this use of cookies and data.
  • en France
  • Liste des pays
  • À 7 jours
  • Température de l'eau
  • Carte satellitaire
  • Carte météo
  • Widgets météo
  • user-avatar
    Se connecter

    Météo par heure à Makurdi

    Ce jour, 22 Janvier, Mardi

    Heure Température Précipitation Vent Pression Humidité
    00:00 +34°C° 0 mm 1 m/s 748 mmHg 41%
    01:00 +33°C° 0 mm 1 m/s 748 mmHg 43%
    02:00 +33°C° 0 mm 1 m/s 748 mmHg 46%
    03:00 +32°C° 0 mm 2 m/s 748 mmHg 49%
    04:00 +32°C° 0 mm 2 m/s 748 mmHg 52%
    05:00 +31°C° 0 mm 2 m/s 748 mmHg 57%
    06:00 +30°C° 0 mm 2 m/s 748 mmHg 61%
    07:00 +30°C° 0 mm 2 m/s 749 mmHg 65%
    08:00 +31°C° 0 mm 2 m/s 749 mmHg 60%
    09:00 +34°C° 0 mm 2 m/s 749 mmHg 55%
    10:00 +35°C° 0 mm 2 m/s 750 mmHg 50%
    11:00 +37°C° 0 mm 1 m/s 749 mmHg 42%
    12:00 +41°C° 0 mm 1 m/s 749 mmHg 33%
    13:00 +41°C° 0 mm 0 m/s 748 mmHg 25%
    14:00 +41°C° 0 mm 0 m/s 747 mmHg 23%
    15:00 +41°C° 0 mm 0 m/s 746 mmHg 22%
    16:00 +41°C° 0 mm 0 m/s 745 mmHg 20%
    17:00 +42°C° 0 mm 1 m/s 746 mmHg 22%
    18:00 +41°C° 0 mm 1 m/s 746 mmHg 23%
    19:00 +40°C° 0 mm 1 m/s 746 mmHg 24%
    20:00 +39°C° 0 mm 1 m/s 746 mmHg 26%
    21:00 +39°C° 0 mm 2 m/s 747 mmHg 28%
    22:00 +38°C° 0 mm 2 m/s 748 mmHg 29%
    23:00 +37°C° 0 mm 2 m/s 748 mmHg 34%

    Demain, 23 Janvier, Mercredi

    Heure Température Précipitation Vent Pression Humidité
    00:00 +36°C° 0 mm 3 m/s 748 mmHg 38%
    01:00 +35°C° 0 mm 4 m/s 748 mmHg 42%
    02:00 +34°C° 0 mm 4 m/s 748 mmHg 49%
    03:00 +33°C° 0 mm 3 m/s 748 mmHg 57%
    04:00 +31°C° 0 mm 3 m/s 748 mmHg 64%
    05:00 +30°C° 0 mm 3 m/s 748 mmHg 66%
    06:00 +30°C° 0 mm 3 m/s 748 mmHg 68%
    07:00 +29°C° 0 mm 3 m/s 748 mmHg 70%
    08:00 +31°C° 0 mm 3 m/s 749 mmHg 65%
    09:00 +33°C° 0 mm 3 m/s 749 mmHg 59%
    10:00 +35°C° 0 mm 3 m/s 750 mmHg 54%
    11:00 +37°C° 0 mm 2 m/s 749 mmHg 46%
    12:00 +39°C° 0 mm 2 m/s 748 mmHg 38%
    13:00 +41°C° 0 mm 2 m/s 747 mmHg 30%
    14:00 +41°C° 0 mm 2 m/s 746 mmHg 27%
    15:00 +42°C° 0 mm 2 m/s 745 mmHg 24%
    16:00 +43°C° 0 mm 2 m/s 744 mmHg 22%
    17:00 +42°C° 0 mm 2 m/s 745 mmHg 23%
    18:00 +41°C° 0 mm 2 m/s 745 mmHg 24%
    19:00 +40°C° 0 mm 2 m/s 745 mmHg 25%
    20:00 +39°C° 0 mm 2 m/s 746 mmHg 27%
    21:00 +39°C° 0 mm 2 m/s 747 mmHg 29%
    22:00 +38°C° 0 mm 3 m/s 747 mmHg 31%
    23:00 +37°C° 0 mm 3 m/s 747 mmHg 38%

    Après-demain, 24 Janvier, Jeudi

    Heure Température Précipitation Vent Pression Humidité
    00:00 +35°C° 0 mm 4 m/s 747 mmHg 45%
    01:00 +34°C° 0 mm 5 m/s 747 mmHg 53%
    02:00 +33°C° 0 mm 5 m/s 747 mmHg 57%
    03:00 +32°C° 0 mm 4 m/s 747 mmHg 62%
    04:00 +30°C° 0 mm 4 m/s 746 mmHg 67%
    05:00 +30°C° 0 mm 4 m/s 747 mmHg 69%
    06:00 +30°C° 0 mm 3 m/s 747 mmHg 70%
    07:00 +29°C° 0 mm 3 m/s 748 mmHg 71%
    08:00 +31°C° 0 mm 3 m/s 748 mmHg 66%
    09:00 +33°C° 0 mm 3 m/s 749 mmHg 60%
    10:00 +34°C° 0 mm 3 m/s 749 mmHg 54%
    11:00 +36°C° 0 mm 3 m/s 748 mmHg 46%
    12:00 +38°C° 0 mm 3 m/s 748 mmHg 39%
    13:00 +39°C° 0 mm 3 m/s 747 mmHg 31%
    14:00 +40°C° 0 mm 3 m/s 746 mmHg 30%
    15:00 +40°C° 0 mm 2 m/s 745 mmHg 28%
    16:00 +40°C° 0 mm 2 m/s 744 mmHg 27%
    17:00 +39°C° 0 mm 2 m/s 745 mmHg 28%
    18:00 +39°C° 0 mm 1 m/s 745 mmHg 29%
    19:00 +37°C° 0 mm 1 m/s 745 mmHg 30%
    20:00 +36°C° 0 mm 1 m/s 746 mmHg 31%
    21:00 +36°C° 0 mm 1 m/s 747 mmHg 33%
    22:00 +35°C° 0 mm 1 m/s 748 mmHg 35%
    23:00 +35°C° 0 mm 2 m/s 747 mmHg 42%

    25 Janvier, Vendredi

    Heure Température Précipitation Vent Pression Humidité
    00:00 +34°C° 0 mm 3 m/s 747 mmHg 50%
    01:00 +33°C° 0 mm 4 m/s 747 mmHg 57%
    02:00 +32°C° 0.1 mm 4 m/s 747 mmHg 60%
    03:00 +31°C° 0.1 mm 3 m/s 747 mmHg 63%
    04:00 +30°C° 0.1 mm 3 m/s 747 mmHg 66%
    05:00 +30°C° 0.1 mm 3 m/s 748 mmHg 68%
    06:00 +29°C° 0.1 mm 3 m/s 748 mmHg 70%
    07:00 +29°C° 0.1 mm 2 m/s 749 mmHg 72%
    08:00 +30°C° 0 mm 2 m/s 749 mmHg 65%
    09:00 +32°C° 0 mm 2 m/s 749 mmHg 59%
    10:00 +35°C° 0 mm 2 m/s 750 mmHg 52%
    11:00 +37°C° 0 mm 2 m/s 749 mmHg 44%
    12:00 +39°C° 0 mm 2 m/s 748 mmHg 36%
    13:00 +41°C° 0 mm 1 m/s 747 mmHg 28%
    14:00 +41°C° 0 mm 1 m/s 746 mmHg 26%
    15:00 +42°C° 0 mm 1 m/s 746 mmHg 24%
    16:00 +43°C° 0 mm 1 m/s 745 mmHg 21%
    17:00 +42°C° 0 mm 1 m/s 745 mmHg 22%
    18:00 +40°C° 0 mm 1 m/s 745 mmHg 23%
    19:00 +39°C° 0 mm 1 m/s 746 mmHg 24%
    20:00 +39°C° 0 mm 1 m/s 746 mmHg 26%
    21:00 +37°C° 0 mm 1 m/s 747 mmHg 27%
    22:00 +36°C° 0 mm 1 m/s 747 mmHg 29%
    23:00 +36°C° 0 mm 2 m/s 747 mmHg 36%

    26 Janvier, Samedi

    Heure Température Précipitation Vent Pression Humidité
    00:00 +35°C° 0 mm 3 m/s 747 mmHg 43%
    01:00 +34°C° 0 mm 5 m/s 747 mmHg 50%
    02:00 +33°C° 0 mm 4 m/s 747 mmHg 54%
    03:00 +33°C° 0 mm 4 m/s 747 mmHg 58%
    04:00 +31°C° 0 mm 3 m/s 747 mmHg 63%
    05:00 +30°C° 0 mm 3 m/s 747 mmHg 66%
    06:00 +30°C° 0 mm 3 m/s 748 mmHg 69%
    07:00 +29°C° 0 mm 3 m/s 748 mmHg 72%
    08:00 +31°C° 0 mm 3 m/s 749 mmHg 67%
    09:00 +33°C° 0 mm 3 m/s 749 mmHg 62%
    10:00 +34°C° 0 mm 3 m/s 750 mmHg 56%
    11:00 +37°C° 0 mm 2 m/s 749 mmHg 47%
    12:00 +39°C° 0 mm 2 m/s 748 mmHg 37%
    13:00 +41°C° 0 mm 2 m/s 747 mmHg 28%
    14:00 +42°C° 0 mm 1 m/s 747 mmHg 25%
    15:00 +42°C° 0 mm 1 m/s 746 mmHg 23%
    16:00 +43°C° 0 mm 1 m/s 745 mmHg 20%
    17:00 +42°C° 0 mm 1 m/s 745 mmHg 21%
    18:00 +40°C° 0 mm 1 m/s 745 mmHg 22%
    19:00 +39°C° 0 mm 1 m/s 746 mmHg 23%
    20:00 +39°C° 0 mm 1 m/s 746 mmHg 25%
    21:00 +38°C° 0 mm 2 m/s 747 mmHg 28%
    22:00 +37°C° 0 mm 2 m/s 747 mmHg 30%
    23:00 +36°C° 0 mm 3 m/s 747 mmHg 39%

    27 Janvier, Dimanche

    Heure Température Précipitation Vent Pression Humidité
    00:00 +35°C° 0 mm 4 m/s 747 mmHg 47%
    01:00 +34°C° 0 mm 5 m/s 747 mmHg 56%
    02:00 +33°C° 0 mm 5 m/s 747 mmHg 59%
    03:00 +32°C° 0 mm 4 m/s 747 mmHg 63%
    04:00 +32°C° 0 mm 4 m/s 747 mmHg 66%
    05:00 +30°C° 0 mm 4 m/s 747 mmHg 68%
    06:00 +30°C° 0 mm 3 m/s 748 mmHg 70%
    07:00 +29°C° 0 mm 3 m/s 748 mmHg 72%
    08:00 +30°C° 0 mm 3 m/s 748 mmHg 68%
    09:00 +31°C° 0 mm 3 m/s 749 mmHg 64%
    10:00 +33°C° 0 mm 3 m/s 749 mmHg 61%
    11:00 +35°C° 0 mm 2 m/s 748 mmHg 54%
    12:00 +36°C° 0 mm 2 m/s 748 mmHg 46%
    13:00 +37°C° 0 mm 1 m/s 747 mmHg 39%
    14:00 +39°C° 0 mm 1 m/s 746 mmHg 35%
    15:00 +40°C° 0 mm 1 m/s 745 mmHg 31%
    16:00 +41°C° 0 mm 1 m/s 745 mmHg 27%
    17:00 +40°C° 0 mm 1 m/s 745 mmHg 29%
    18:00 +39°C° 0 mm 1 m/s 745 mmHg 30%
    19:00 +37°C° 0 mm 1 m/s 746 mmHg 32%
    20:00 +37°C° 0.2 mm 2 m/s 746 mmHg 37%
    21:00 +36°C° 0.2 mm 3 m/s 747 mmHg 43%
    22:00 +35°C° 0.2 mm 4 m/s 748 mmHg 48%
    23:00 +34°C° 0 mm 4 m/s 748 mmHg 53%
    Voir plus